GFSSE_con_mlcape_276.txt.gz
CAPE
741 1495 598 119 221 538 51 129 111 1 0 0 52 87 0 0 0 0 0 1 0 3 5 2 0 0 0 0 0 0 0 0 0 0 1 0 0 0 1 2 1 1 6
930 1291 593 235 482 540 75 145 55 0 0 0 0 0 0 0 0 0 0 0 0 0 0 0 0 0 0 0 0 0 0 0 0 0 0 0 0 0 0 0 2 3 7
967 972 550 290 621 348 82 111 10 0 0 0 0 0 4 35 59 59 62 46 2 0 0 0 0 0 0 0 0 0 0 0 0 0 0 0 0 0 0 0 0 1 3
632 800 582 342 584 202 41 74 34 0 0 2 55 113 149 162 125 114 142 133 92 71 46 13 0 0 0 0 0 0 0 0 0 0 0 0 0 0 0 0 0 0 0
545 796 698 517 623 211 82 97 61 14 19 70 124 162 191 200 190 188 189 176 151 92 50 1 0 0 0 0 0 0 0 0 0 16 2 0 0 0 0 0 0 0 0
463 778 1065 771 712 259 153 161 130 72 66 107 167 195 245 247 238 229 220 222 163 62 9 0 0 0 0 0 0 0 0 0 0 0 0 0 0 0 0 0 0 0 0
515 899 933 789 774 299 246 284 284 237 127 144 155 193 219 219 216 204 182 125 89 30 0 0 0 0 0 0 0 0 4 0 8 0 0 0 0 0 0 0 0 0 0
340 855 961 994 853 396 316 311 299 295 244 163 150 158 170 164 180 148 120 100 66 29 0 0 0 0 0 0 0 0 45 146 26 17 0 0 0 0 0 0 0 0 0
353 734 1139 1147 922 485 385 341 280 289 302 248 163 102 96 106 137 138 124 102 71 43 32 18 6 11 19 20 0 0 0 85 200 85 0 0 0 2 0 0 0 0 0
203 372 559 820 729 537 426 346 297 318 352 351 309 245 191 164 191 183 142 149 148 146 138 130 126 113 120 110 134 91 59 110 29 39 169 10 0 43 34 0 0 0 0
154 241 319 272 410 398 395 421 350 358 390 443 489 455 378 311 308 324 307 253 257 242 197 157 168 164 186 271 322 447 518 393 215 30 155 60 15 166 185 18 0 0 0
0 27 208 168 159 357 510 485 337 340 401 387 414 406 349 255 195 266 284 337 333 468 464 318 218 174 213 285 263 305 382 762 801 505 123 456 339 347 412 204 11 0 0
10 0 28 80 68 62 214 318 252 269 263 215 189 203 232 231 162 529 632 692 711 871 753 632 463 313 314 441 264 297 613 695 811 824 570 569 696 544 687 453 233 118 14
79 0 0 0 34 47 156 86 145 113 148 50 38 48 56 58 95 362 529 659 827 924 855 740 595 338 443 570 602 556 604 689 679 634 470 541 1148 891 783 802 513 327 204
328 180 56 2 3 205 405 5 16 24 3 1 0 19 218 243 136 244 395 573 870 939 848 822 717 435 412 587 719 756 613 340 389 292 125 346 695 810 748 842 816 628 420
440 390 355 233 155 241 493 274 97 135 162 135 149 155 300 334 358 453 456 456 879 939 794 746 584 528 582 793 954 938 719 676 635 346 4 149 454 782 953 775 746 1099 767
182 505 423 327 267 348 522 434 338 327 370 290 291 262 296 401 409 408 386 422 379 445 427 383 409 346 446 733 957 836 821 747 576 421 288 467 446 59 122 471 447 532 1091
479 572 492 420 568 461 652 797 1080 706 613 572 474 456 345 378 440 493 622 496 534 479 558 505 305 296 474 681 663 508 329 223 82 42 0 0 87 264 237 130 8 32 606
683 943 745 892 1112 1023 1218 1799 1649 1729 1637 1455 1308 1114 805 453 494 665 737 744 930 911 881 929 938 831 761 494 454 248 282 222 83 68 19 0 58 94 71 8 24 39 2
1917 2025 2030 2005 1700 1999 1886 2034 1961 1761 1555 1248 1045 931 1408 1173 712 369 855 778 896 798 639 483 595 437 392 134 244 233 7 1 0 0 0 0 8 0 0 0 0 0 52
1989 2030 2154 2311 2337 2447 2601 2541 2403 1885 1226 958 528 297 570 550 587 819 727 711 343 121 14 0 4 0 0 0 0 0 0 0 0 0 0 0 0 0 6 8 0 0 20
1920 1963 1871 1814 1969 2245 2397 2237 2077 1324 697 316 76 0 0 11 77 144 148 210 247 134 99 59 14 0 0 0 0 0 0 0 0 0 0 0 0 0 0 16 35 18 222
1469 1517 1600 1371 1395 1584 1897 1761 1184 736 419 259 47 0 0 0 0 0 0 0 0 0 0 0 3 0 6 0 0 0 0 0 0 0 0 0 0 0 0 0 1 5 9
997 988 1069 1092 1144 1158 1340 1479 1178 878 616 114 0 0 0 0 0 0 0 0 0 0 0 0 0 0 0 3 1 0 0 0 7 1 0 0 21 13 0 0 3 5 21
562 457 504 668 864 859 897 807 745 553 249 2 0 0 0 0 0 0 0 0 0 0 0 0 0 0 0 0 4 1 9 9 5 18 3 0 12 27 37 3 6 16 32
238 180 126 225 360 349 336 247 195 82 19 0 0 0 0 0 0 0 0 0 0 0 0 0 0 0 0 0 0 0 0 15 24 3 7 0 21 55 24 24 13 8 0

GFSSE_con_mlcape_279.txt.gz
CAPE
719 1217 620 508 406 0 0 0 0 0 98 238 210 143 128 0 1 1 3 3 4 2 2 0 0 2 1 1 0 0 0 0 1 4 2 6 3 2 2 3 1 4 5
678 1142 692 508 385 0 6 0 0 0 14 137 90 15 5 8 41 29 25 48 35 14 0 0 0 1 3 1 0 0 0 0 0 0 1 1 0 0 0 3 3 10 1
687 942 562 480 297 13 53 13 0 0 2 71 29 40 76 113 99 106 103 87 23 26 47 59 16 0 0 0 0 25 1 0 0 0 0 0 0 0 0 0 1 3 3
879 833 503 664 308 70 122 28 0 25 49 49 59 104 168 184 187 211 183 159 164 153 112 38 4 0 0 0 0 0 0 0 0 0 0 0 0 0 0 0 0 0 0
871 733 499 767 343 150 174 64 33 67 90 131 175 220 283 271 271 262 241 222 198 136 48 0 0 0 0 0 0 0 0 0 18 58 14 0 0 0 0 0 0 0 0
669 665 802 768 350 179 214 173 126 103 135 180 226 326 370 336 270 250 243 200 164 71 15 0 0 0 5 5 0 0 0 0 1 0 0 0 0 0 0 0 0 0 0
524 710 831 801 430 255 263 215 133 117 158 254 318 396 405 312 252 228 189 155 124 77 30 0 0 0 0 2 10 30 68 85 88 0 0 0 0 0 0 0 0 0 0
562 843 855 1005 611 327 294 216 203 132 144 194 266 330 313 259 234 200 153 147 111 75 36 7 0 0 0 0 9 25 79 113 107 53 0 0 0 0 0 0 0 0 0
617 640 828 934 693 393 358 281 310 251 192 214 257 285 251 216 202 158 127 125 110 73 41 30 10 6 0 15 21 60 100 114 153 69 0 0 0 0 0 0 0 0 0
612 599 579 786 673 449 483 403 389 334 313 255 220 192 202 174 184 178 145 138 101 93 113 125 123 94 99 112 131 151 266 391 280 70 75 49 0 15 132 21 0 0 0
480 599 661 618 556 309 285 390 416 447 461 454 414 342 251 199 214 214 208 166 245 259 286 277 263 264 307 332 397 408 446 407 352 320 141 118 186 146 294 241 36 0 0
21 323 607 519 338 258 275 283 362 404 537 537 485 436 373 278 252 327 354 437 469 539 620 624 540 426 533 369 299 352 379 429 577 724 719 481 275 313 454 482 257 105 4
0 90 290 312 263 155 143 185 266 254 357 421 411 417 419 332 294 316 414 488 618 670 729 867 815 693 410 218 166 328 460 417 629 643 822 863 812 694 742 866 601 313 152
0 3 145 188 168 180 255 102 125 84 262 227 284 337 288 207 148 111 405 725 754 833 929 970 891 813 791 534 405 552 626 606 735 497 524 524 684 1041 1082 1070 954 644 397
13 2 30 176 80 111 180 158 67 22 34 91 108 127 122 24 0 63 307 502 616 703 901 895 882 830 725 586 574 611 716 692 613 431 361 187 393 769 1372 1293 1212 1122 777
178 42 15 40 43 44 47 109 0 22 31 31 15 10 29 95 212 266 219 358 482 714 947 910 738 718 568 495 622 939 1013 866 731 644 442 79 253 388 908 1346 1391 1411 1236
326 117 7 0 0 0 24 259 2 5 68 18 63 113 198 285 450 446 447 496 348 431 451 364 244 163 230 417 664 807 909 843 712 598 286 113 205 361 168 350 713 831 579
407 355 268 123 17 7 177 408 274 41 130 303 385 392 382 403 433 453 516 560 550 509 753 638 650 574 697 649 673 647 528 424 287 129 37 11 0 32 326 551 380 154 50
362 426 416 412 375 323 372 455 491 523 511 605 729 635 577 567 544 528 626 754 806 670 581 679 520 578 447 316 416 409 303 293 196 19 0 9 0 0 19 64 96 70 156
405 372 557 574 664 643 635 909 1202 1178 1107 1124 1154 1365 1563 1313 930 720 476 467 368 233 9 30 145 28 7 0 0 38 7 0 0 0 0 0 0 0 0 0 0 4 91
1136 999 904 938 1115 1095 1149 1525 1664 1031 625 465 373 538 705 730 627 499 586 320 119 187 109 30 0 0 0 0 0 0 0 0 0 0 0 0 0 0 0 0 1 6 64
1693 1697 1653 1488 1536 1760 1737 1846 1317 755 196 77 22 55 104 162 158 132 40 0 0 0 1 0 0 0 0 0 0 0 0 0 0 0 0 0 0 0 0 0 0 12 26
1893 1850 1819 1882 1948 2032 1862 1437 858 303 114 46 8 0 0 0 0 0 0 0 0 0 0 0 0 0 0 0 0 3 4 1 1 0 0 0 0 0 0 0 0 0 0
1603 1473 1493 1553 1642 1731 1552 1441 1100 1059 634 53 0 0 0 0 0 0 0 0 0 0 0 0 0 0 0 0 0 1 3 11 8 9 0 0 0 0 0 0 8 0 1
956 939 945 1008 1121 1218 1248 1112 918 542 94 0 0 0 0 0 0 0 0 0 0 0 0 0 0 0 0 0 0 0 0 3 14 6 2 0 0 0 2 16 16 0 1
624 601 651 766 730 751 808 692 574 302 0 0 0 0 0 0 0 0 0 0 0 0 0 0 0 0 0 0 0 0 0 0 3 10 3 5 0 0 0 7 13 13 0

GFSSE_con_mlcape_285.txt.gz
CAPE
402 1009 727 585 308 53 103 190 226 247 232 149 118 91 88 69 53 77 76 73 23 7 40 35 23 3 4 0 0 0 0 0 0 0 0 0 0 1 0 0 0 0 3
516 944 810 514 357 66 25 194 237 220 207 170 84 86 78 106 81 82 98 81 51 101 130 86 115 118 95 50 19 0 0 0 0 0 0 0 0 0 1 3 0 0 0
889 803 759 538 448 109 4 90 208 128 128 112 83 104 141 150 134 134 117 78 80 124 149 177 190 185 167 127 80 46 9 41 0 0 0 0 0 0 0 1 1 0 0
978 606 809 624 447 80 24 35 108 122 99 117 146 147 160 182 183 154 147 196 244 223 178 128 77 44 40 34 30 15 5 0 6 3 0 0 0 0 0 0 0 0 0
876 612 1056 592 349 43 0 0 77 108 126 176 195 196 172 212 255 257 295 300 282 227 137 91 44 12 2 0 0 0 0 18 89 167 129 0 0 0 0 0 0 0 0
666 560 1116 665 380 82 0 19 75 107 171 188 236 258 257 344 324 312 327 284 259 135 78 52 36 13 0 0 0 0 0 32 282 122 88 110 0 0 0 0 0 0 0
585 555 1070 605 297 127 54 99 140 228 269 291 218 238 318 355 313 330 299 227 169 114 93 58 24 0 0 0 11 52 98 197 351 149 217 168 10 0 13 0 0 0 0
544 634 1060 712 332 260 166 157 237 295 388 373 298 334 356 323 307 315 279 219 153 115 95 89 52 54 64 77 111 139 142 189 249 232 130 158 7 0 41 77 0 0 0
563 686 1050 843 599 356 254 194 243 342 424 387 352 397 349 310 280 248 227 184 142 97 75 92 133 184 210 237 253 261 297 444 431 431 199 57 2 0 70 246 0 0 0
615 680 893 1027 519 418 471 404 340 315 354 375 374 365 323 309 260 191 164 146 190 190 188 227 313 366 368 336 333 391 514 622 772 708 746 537 1 1 46 327 147 10 0
532 668 768 890 784 466 389 572 485 490 428 443 452 406 298 260 266 271 247 143 163 261 383 495 606 685 768 780 470 352 358 575 618 777 1011 950 541 357 244 425 467 241 87
295 501 656 795 823 568 383 507 619 554 462 446 385 410 341 311 268 225 214 193 322 407 528 633 724 871 1095 1212 1139 1002 842 783 869 1012 1053 864 840 1050 981 803 749 644 367
205 456 630 805 871 693 334 574 643 562 661 695 704 618 603 347 362 354 396 421 533 656 1054 1164 1292 1294 1353 1375 1229 1261 1223 1164 1143 1174 1151 837 740 939 1254 1299 1061 994 756
162 375 671 720 747 714 546 561 548 572 684 643 587 797 732 589 521 450 297 398 768 1151 1156 1112 1179 1406 1497 1397 1218 1072 954 1220 1331 1476 1422 666 555 606 612 967 1682 1370 1169
14 244 592 686 598 547 441 540 532 317 440 551 462 682 677 558 514 485 372 357 540 807 821 923 1182 1396 1280 1103 911 811 953 1397 1629 1531 1433 952 676 407 483 735 1053 1647 1372
0 51 494 593 544 452 293 471 477 484 552 634 571 564 680 619 547 362 322 413 590 699 829 987 1189 1057 925 704 701 1115 1218 1446 1476 1487 1352 1254 420 202 111 413 688 1207 1431
0 43 172 379 510 285 333 407 541 572 491 504 555 624 548 595 558 510 526 831 877 919 861 874 873 821 808 945 1156 1186 1237 1256 1206 1102 980 738 642 238 46 26 195 478 678
162 67 223 398 418 306 353 340 514 564 534 423 467 504 445 442 639 703 819 959 1088 1201 1357 1350 1294 1290 1262 1089 1062 1076 1079 1020 1009 961 700 398 127 108 121 2 0 0 296
474 333 226 326 428 385 372 412 370 436 425 507 496 734 697 722 804 906 943 1203 1307 1065 902 1029 687 483 423 180 69 33 409 465 413 174 157 42 121 55 3 0 0 0 0
594 541 442 377 492 423 330 380 518 731 791 1096 1063 1161 1572 1431 999 1084 848 609 448 425 390 339 382 187 92 51 36 94 153 118 34 131 0 0 0 0 0 0 0 0 0
702 693 569 487 473 393 161 178 265 354 813 790 969 1179 1362 1267 1010 805 566 498 580 707 530 416 372 251 258 81 33 4 52 0 0 0 0 0 0 0 0 0 0 13 0
759 828 819 728 618 491 316 429 660 777 737 790 735 794 931 897 778 630 561 462 262 204 141 83 95 86 29 1 0 0 0 0 2 0 0 0 0 0 0 0 5 128 101
1308 1014 940 939 874 689 667 1039 702 577 528 591 426 286 206 283 156 61 0 0 0 0 0 0 0 0 0 4 1 0 0 0 0 0 0 0 0 0 0 0 48 158 217
1838 1347 1044 1068 1168 1160 1313 1018 833 1078 1186 768 290 61 6 0 0 0 0 0 0 0 0 0 0 0 0 0 0 0 0 7 1 0 0 0 0 0 0 0 74 124 238
1815 1654 1378 1358 1557 1605 1427 1340 1349 1397 1027 403 79 0 0 0 0 0 0 0 0 0 0 0 0 0 0 0 0 0 0 0 4 0 0 0 0 0 0 0 73 24 2
1776 1635 1514 1550 1450 1529 1630 1471 1361 1114 595 241 0 0 0 0 0 0 0 0 0 0 0 0 0 0 0 0 0 0 0 0 0 0 0 0 0 0 0 0 2 0 0

GFSSE_con_mlcape_291.txt.gz
CAPE
158 431 286 87 215 267 527 836 832 629 545 440 204 114 68 36 77 121 14 34 52 56 74 97 90 90 83 58 12 0 0 0 0 0 0 0 0 0 0 0 6 0 17
365 475 280 190 188 215 278 477 610 521 361 220 139 94 44 109 79 72 43 147 181 189 195 213 186 191 152 95 50 32 0 0 0 0 0 0 0 0 0 0 0 0 4
282 616 238 127 147 186 216 206 226 207 122 118 89 63 124 133 141 100 146 266 270 271 301 301 296 248 216 176 137 127 67 10 0 0 10 47 0 0 0 0 0 0 0
441 508 129 79 108 195 116 162 237 147 94 96 142 146 143 160 145 137 196 252 301 357 340 303 246 171 101 57 19 0 0 0 83 248 371 165 11 0 0 0 0 0 0
320 485 415 139 73 194 280 207 203 175 114 175 230 251 228 223 168 257 367 367 347 313 266 199 118 64 27 1 0 6 7 27 114 356 578 238 223 0 0 0 0 0 0
222 530 294 159 113 140 238 199 167 157 215 242 269 300 320 283 336 396 429 399 299 205 157 102 64 57 47 50 68 96 102 102 163 494 687 361 470 0 0 0 0 0 0
306 393 265 239 157 122 213 201 164 277 309 312 363 373 429 423 459 477 454 380 244 160 106 66 33 11 31 45 50 97 103 51 287 499 604 595 626 98 25 9 0 0 0
431 180 250 322 182 171 223 173 241 339 388 436 461 495 529 454 470 475 415 329 253 177 113 94 65 56 56 76 101 152 147 137 331 655 562 553 392 137 104 176 105 47 0
450 323 153 109 250 336 223 174 315 329 436 393 426 486 413 391 397 369 326 240 170 136 117 102 123 151 172 191 188 197 224 235 597 995 925 874 384 200 123 275 258 155 46
306 503 182 94 63 56 95 395 421 431 513 431 497 487 346 278 257 210 114 40 126 118 122 160 186 210 243 170 101 76 51 117 468 1441 1054 1192 591 406 299 270 518 706 277
62 365 205 71 49 11 2 211 434 546 590 537 447 418 188 143 165 391 81 250 87 57 115 152 275 423 481 470 448 699 748 1001 1136 1118 1033 1144 854 586 589 585 556 808 707
27 175 214 87 66 62 109 259 129 151 178 163 139 322 236 157 204 194 372 190 0 0 44 207 431 656 716 1137 1363 1162 1685 1596 601 800 1366 1275 1056 864 982 1171 977 871 1044
9 86 230 221 202 75 108 379 164 143 135 207 313 594 133 222 163 25 17 241 179 68 733 594 1352 1461 1559 1064 679 932 715 620 662 634 1382 1379 1225 958 1147 1537 1719 1671 1416
16 63 181 360 569 212 98 322 209 212 268 353 477 690 565 582 273 213 137 125 418 620 787 1082 739 774 986 1025 1046 852 776 640 479 626 981 1291 1051 786 800 998 1207 1406 1624
12 71 145 456 889 635 377 264 279 219 301 328 552 713 442 420 333 344 198 198 184 477 845 835 878 961 1092 1007 976 986 823 876 695 755 734 1151 1086 959 731 559 575 773 1142
26 137 167 543 1167 1040 873 569 354 413 297 412 451 413 587 597 482 363 658 749 449 613 904 1064 1393 1540 1398 1299 1391 1490 1358 1328 1263 1259 1067 1083 1080 1053 830 488 249 292 618
323 359 356 507 1160 1196 1109 961 642 427 304 495 687 737 704 901 896 1000 1133 1285 1480 1646 1677 1594 1488 1517 1685 1412 1517 1451 1388 1383 1465 1400 1415 1316 1397 1164 883 335 145 13 0
710 839 826 747 967 1407 1151 1010 608 438 371 767 1053 945 1185 1273 1489 1714 1599 1612 1702 1986 1913 1782 1795 1660 1539 1466 1516 1417 1171 1213 1174 1558 1423 1276 1046 868 739 721 155 38 20
778 1029 1283 1153 981 1443 1302 997 775 639 602 895 1251 1235 1508 1421 1380 1641 1752 1904 2252 2239 2071 1977 1798 1765 1604 1451 1270 1188 1009 1015 1127 1029 920 856 697 429 113 335 244 209 203
947 1189 1453 1601 1568 1816 1492 1136 850 624 743 865 1313 1418 1739 2076 1997 2078 2312 2257 2593 2218 1857 1840 2010 1891 1622 1322 1015 725 777 779 522 317 361 173 88 21 8 5 72 188 424
1500 1517 1630 1860 1915 1974 1793 1340 932 834 965 702 1121 1735 2436 2767 2896 2804 2657 2439 2331 2012 2126 2182 1808 1310 1132 933 474 100 0 341 418 228 28 2 0 0 0 11 19 389 603
1938 2275 2299 2136 2486 2393 2163 1927 1425 1042 1159 1528 2122 2574 2805 3059 2980 2810 2615 2465 2236 1949 1767 1317 1201 915 610 252 17 0 0 0 362 3 0 0 0 0 0 1 178 311 330
1937 2571 2579 2806 2725 2506 2147 2207 1895 1358 1402 1786 2429 2877 2865 2756 2511 2460 2373 2117 2043 1672 1101 614 230 31 0 0 3 0 0 0 0 0 1 0 0 0 0 0 197 133 90
1849 2190 2672 2975 3186 3093 2806 2044 1838 1440 1662 2375 2421 2373 2201 2190 2011 1918 1835 1525 1000 393 171 0 0 0 0 0 0 0 0 0 0 0 0 0 0 0 0 0 4 113 10
1812 2261 2423 3123 3351 3264 3200 2433 2209 1949 2042 2115 2181 2462 1962 1636 1393 911 833 493 155 0 0 0 0 0 0 0 0 0 0 0 0 0 0 0 0 0 0 0 0 7 18
851 2316 2792 2958 3405 3401 3440 2768 2729 2432 2277 2222 2484 1979 1647 1250 734 301 125 4 0 0 0 0 0 0 0 0 0 0 0 0 0 0 0 0 0 0 0 0 0 1 14